Flight Track Log - Related Links

Times and Time Zones

All times are in EDT time to prevent confusion due to time zone crossing. See the DAL6231 flight status page for this flight to view local times or setup timezone preferences in your user account.


Time Position Orientation Groundspeed Altitude Reporting Facility
EDT Latitude Longitude Course Direction KTS MPH feet Rate Location/Type
Mon 10:46:58 AM 42.2006 -83.3578 188° South 154 177 1,500  Level Cleveland Center
Mon 10:47:11 AM 42.1919 -83.3594 188° South 158 182 2,000 1,807 Climbing Cleveland Center
Mon 10:48:21 AM 42.1447 -83.3794 197° South 190 219 4,000 2,115 Climbing Cleveland Center
Mon 10:49:13 AM 42.0694 -83.3986 191° South 275 316 6,300 2,226 Climbing Cleveland Center
Mon 10:49:23 AM 42.0669 -83.3983 175° South 252 290 6,300 2,459 Level Cleveland Center
Mon 10:50:14 AM 42.0236 -83.3133 124° Southeast 305 351 8,800 2,613 Climbing Cleveland Center
Mon 10:50:25 AM 42.0225 -83.3058 101° East 297 342 9,000 1,068 Climbing Cleveland Center
Mon 10:51:27 AM 42.0231 -83.1856 90° East 313 360 10,100 532 Climbing Cleveland Center
Mon 10:52:29 AM 42.0356 -83.0558 83° East 348 400 10,100 435 Level Cleveland Center
Mon 10:53:31 AM 42.0486 -82.9189 83° East 368 423 11,000 1,645 Climbing Cleveland Center
Mon 10:54:33 AM 42.0642 -82.7442 83° East 391 450 13,500 2,177 Climbing Cleveland Center
Mon 10:55:35 AM 42.0781 -82.5983 83° East 393 452 15,500 1,694 Climbing Cleveland Center
Mon 10:56:37 AM 42.0847 -82.4494 86° East 396 456 17,000 1,065 Climbing Cleveland Center
Mon 10:57:39 AM 42.0594 -82.2928 102° East 424 488 17,700 919 Climbing Cleveland Center
Mon 10:58:41 AM 42.0347 -82.1247 101° East 438 504 18,900 1,248 Climbing Cleveland Center
Mon 10:59:44 AM 41.9536 -81.9986 131° Southeast 447 514 20,300 1,008 Climbing Cleveland Center
Mon 11:00:46 AM 41.8314 -81.8817 145° Southeast 454 522 21,000 339 Climbing Cleveland Center
Mon 11:01:48 AM 41.7269 -81.7825 145° Southeast 456 525 21,000  Level Cleveland Center
Mon 11:02:50 AM 41.6239 -81.6842 144° Southeast 452 520 21,000  Level Cleveland Center
Mon 11:03:52 AM 41.5197 -81.5856 145° Southeast 452 520 21,000  Level Cleveland Center
Mon 11:04:54 AM 41.4133 -81.4872 145° Southeast 452 520 21,000  Level Cleveland Center
Mon 11:05:55 AM 41.3081 -81.3883 145° Southeast 452 520 21,000 -780 Level Cleveland Center
Mon 11:06:57 AM 41.2044 -81.2922 145° Southeast 450 518 19,400 -1,645 Descending Cleveland Center
Mon 11:07:59 AM 41.1075 -81.1956 143° Southeast 438 504 17,600 -1,839 Descending Cleveland Center
Mon 11:09:01 AM 41.0494 -81.0606 120° Southeast 419 482 15,600 -1,935 Descending Cleveland Center
Mon 11:10:03 AM 40.9939 -80.9306 119° Southeast 409 471 13,600 -1,935 Descending Cleveland Center
Mon 11:11:05 AM 40.9408 -80.8008 118° Southeast 404 465 11,600 -1,707 Descending Cleveland Center
Mon 11:12:06 AM 40.8464 -80.6822 136° Southeast 397 457 10,100 -780 Descending Cleveland Center
Mon 11:13:08 AM 40.7644 -80.5911 140° Southeast 389 448 10,000 -581 Descending Cleveland Center
Mon 11:14:10 AM 40.7394 -80.4864 107° East 304 350 8,900 -1,452 Descending Cleveland Center
Mon 11:15:12 AM 40.6781 -80.4097 137° Southeast 298 343 7,000 -1,366 Descending Cleveland Center
Mon 11:16:13 AM 40.6261 -80.3339 132° Southeast 294 338 6,100 -585 Descending Cleveland Center
Mon 11:17:15 AM 40.5806 -80.2517 126° Southeast 286 329 5,800 -919 Descending Cleveland Center
Mon 11:18:17 AM 40.5386 -80.1644 122° Southeast 274 315 4,200 -919 Descending Cleveland Center
Mon 11:19:19 AM 40.4972 -80.0825 124° Southeast 268 308 3,900 -537 Descending Cleveland Center
Mon 11:20:20 AM 40.4369 -80.0411 152° Southeast 249 287 3,100 -585 Descending Cleveland Center
Mon 11:21:22 AM 40.4122 -80.0939 238° Southwest 187 215 2,700 -488 Descending Cleveland Center
Mon 11:22:23 AM 40.4339 -80.1475 298° West 156 180 2,100 -537 Descending Cleveland Center
Mon 11:23:25 AM 40.4619 -80.1825 316° Northwest 146 168 1,600 -484 Descending Cleveland Center

Login

Don't have an account? Register now (free) for customized features, flight alerts, and more!